CW8845 Weather Reports


Display with metric or nautical units.
time (UTC)temp
F
wind
direction
speed
MPH
gust
MPH
rain 1hr
in
rain 24hr
in
rain mn
in
humidity
%
barometer
mb
20260831132643 47 38 3.0 5.0 0.00 0.00 0.00 61 1017.5
20260831131613 47 38 2.0 5.0 0.00 0.00 0.00 63 1017.5
20260831130624 46 38 1.0 6.0 0.00 0.00 0.00 66 1017.6
20260831125627 45 36 3.0 6.0 0.00 0.00 0.00 67 1017.5
20260831124643 46 36 2.0 5.0 0.00 0.00 0.00 65 1017.5
20260831123614 46 35 2.0 5.0 0.00 0.00 0.00 65 1017.5
20260831122625 46 35 2.0 4.0 0.00 0.00 0.00 66 1017.5
20260831121620 46 35 1.0 5.0 0.00 0.00 0.00 65 1017.5
20260831120613 47 34 1.0 4.0 0.00 0.00 0.00 63 1017.5
20260831115635 47 34 2.0 5.0 0.00 0.00 0.00 62 1017.5
20260831114625 48 34 2.0 4.0 0.00 0.00 0.00 61 1017.5
20260831113612 48 34 1.0 3.0 0.00 0.00 0.00 62 1017.6
20260831112625 47 34 3.0 5.0 0.00 0.00 0.00 62 1017.6
20260831111615 48 35 1.0 4.0 0.00 0.00 0.00 61 1017.7
20260831110626 47 34 3.0 4.0 0.00 0.00 0.00 62 1017.5
20260831105650 47 34 1.0 4.0 0.00 0.00 0.00 64 1017.8
20260831104622 47 34 2.0 4.0 0.00 0.00 0.00 63 1017.8
20260831103613 48 34 0.0 1.0 0.00 0.00 0.00 61 1017.8
20260831102623 49 34 2.0 6.0 0.00 0.00 0.00 61 1017.7
20260831101615 49 35 2.0 4.0 0.00 0.00 0.00 61 1017.8
20260831100644 48 35 1.0 4.0 0.00 0.00 0.00 63 1017.6
20260831095625 47 35 1.0 3.0 0.00 0.00 0.00 66 1017.5
20260831094637 47 35 3.0 5.0 0.00 0.00 0.00 67 1017.5
20260831093625 47 34 2.0 5.0 0.00 0.00 0.00 67 1017.5
20260831092640 47 33 4.0 5.0 0.00 0.00 0.00 65 1017.4
20260831091629 49 34 2.0 5.0 0.00 0.00 0.00 62 1017.4
20260831090640 49 34 2.0 4.0 0.00 0.00 0.00 63 1017.3
20260831085641 49 34 2.0 3.0 0.00 0.00 0.00 63 1017.4
20260831084616 50 34 0.0 2.0 0.00 0.00 0.00 61 1017.3
20260831083626 51 34 0.0 2.0 0.00 0.00 0.00 59 1017.2
20260831082615 52 34 0.0 1.0 0.00 0.00 0.00 58 1017.3
20260831081625 52 34 0.0 0.0 0.00 0.00 0.00 58 1017.4
20260831080620 52 34 0.0 0.0 0.00 0.00 0.00 57 1017.5
20260831075623 52 34 0.0 3.0 0.00 0.00 0.00 58 1017.4
20260831074614 52 34 1.0 3.0 0.00 0.00 0.00 56 1017.4
20260831073625 53 34 1.0 4.0 0.00 0.00 0.00 55 1017.4
20260831072641 53 34 1.0 4.0 0.00 0.00 0.00 53 1017.4
20260831071629 53 32 1.0 3.0 0.00 0.00 0.00 53 1017.4
20260831070641 54 31 2.0 4.0 0.00 0.00 0.00 52 1017.5
20260831065623 54 31 2.0 5.0 0.00 0.00 0.00 51 1017.5
20260831064618 55 31 1.0 4.0 0.00 0.00 0.00 50 1017.6
20260831063630 56 31 1.0 3.0 0.00 0.00 0.00 48 1017.6
20260831062621 57 31 1.0 3.0 0.00 0.00 0.00 46 1017.5
20260831061653 57 31 2.0 4.0 0.00 0.00 0.00 46 1017.6
20260831060649 56 31 2.0 3.0 0.00 0.00 0.00 47 1017.6
20260831055615 56 31 1.0 2.0 0.00 0.00 0.00 48 1017.6
20260831054626 57 31 0.0 3.0 0.00 0.00 0.00 48 1017.6
20260831053618 57 31 1.0 3.0 0.00 0.00 0.00 47 1017.6
20260831052629 58 31 2.0 3.0 0.00 0.00 0.00 46 1017.6
20260831051625 58 31 1.0 2.0 0.00 0.00 0.00 45 1017.6
20260831050616 59 31 0.0 2.0 0.00 0.00 0.00 44 1017.5
20260831045619 59 31 2.0 3.0 0.00 0.00 0.00 43 1017.5
20260831044615 59 31 0.0 2.0 0.00 0.00 0.00 43 1017.5
20260831043646 60 31 1.0 2.0 0.00 0.00 0.00 43 1017.4
20260831042617 60 31 1.0 3.0 0.00 0.00 0.00 42 1017.4
20260831041628 60 31 2.0 4.0 0.00 0.00 0.00 43 1017.4
20260831040623 60 31 2.0 4.0 0.00 0.00 0.00 45 1017.4
20260831035626 61 31 2.0 3.0 0.00 0.02 0.00 43 1017.2
20260831034616 61 31 0.0 3.0 0.00 0.02 0.00 43 1017.0
20260831033626 62 31 1.0 3.0 0.00 0.02 0.00 43 1017.0
20260831032622 62 32 0.0 4.0 0.00 0.02 0.00 42 1016.9
20260831031613 62 26 1.0 3.0 0.00 0.02 0.00 42 1016.8
20260831030622 63 26 0.0 3.0 0.00 0.02 0.00 42 1016.4
20260831025624 64 26 1.0 5.0 0.00 0.02 0.00 42 1016.3
20260831024619 65 11 1.0 4.0 0.00 0.02 0.00 41 1016.1
20260831023650 65 10 3.0 5.0 0.00 0.02 0.00 39 1015.9
20260831022640 67 5 2.0 4.0 0.00 0.02 0.00 37 1015.8
20260831021629 68 5 1.0 8.0 0.00 0.02 0.00 37 1015.7
20260831020620 70 344 2.0 5.0 0.00 0.02 0.00 35 1015.6
20260831015626 71 338 1.0 4.0 0.00 0.02 0.00 33 1015.6
20260831014618 72 342 2.0 6.0 0.00 0.02 0.00 29 1015.6
20260831013628 73 5 3.0 8.0 0.00 0.02 0.00 28 1015.6
20260831012623 74 9 3.0 9.0 0.00 0.02 0.00 27 1015.6
20260831011613 75 342 3.0 8.0 0.00 0.02 0.00 28 1015.5
20260831010644 75 312 4.0 6.0 0.00 0.02 0.00 27 1015.6
20260831005624 76 5 6.0 10.0 0.00 0.02 0.00 25 1015.6
20260831004612 76 360 3.0 8.0 0.00 0.02 0.00 26 1015.7
20260831003626 76 344 4.0 8.0 0.00 0.02 0.00 26 1015.8
20260831002638 76 308 1.0 6.0 0.00 0.02 0.00 26 1016.0
20260831001626 77 351 3.0 9.0 0.00 0.02 0.00 24 1015.9
20260831000617 77 16 3.0 8.0 0.00 0.02 0.00 24 1016.0
20260830235622 77 336 2.0 8.0 0.00 0.02 0.00 24 1016.0
20260830234612 77 5 4.0 9.0 0.00 0.02 0.00 23 1015.9
20260830233641 77 53 3.0 8.0 0.00 0.02 0.00 23 1015.9
20260830232629 77 304 3.0 8.0 0.00 0.02 0.00 24 1015.9
20260830231624 77 360 2.0 7.0 0.00 0.02 0.00 25 1016.0
20260830230634 77 291 2.0 9.0 0.00 0.02 0.00 24 1015.9
20260830225616 78 17 5.0 9.0 0.00 0.02 0.00 24 1015.9
20260830224626 78 345 5.0 9.0 0.00 0.02 0.00 23 1016.1
20260830223639 78 338 7.0 13.0 0.00 0.02 0.00 25 1016.1
20260830222627 77 283 2.0 10.0 0.00 0.02 0.00 25 1016.2
20260830221637 77 346 4.0 11.0 0.00 0.02 0.00 25 1016.2
20260830220646 77 292 4.0 13.0 0.00 0.02 0.00 24 1016.4
20260830215626 77 301 4.0 9.0 0.00 0.02 0.00 25 1016.5
20260830214621 77 315 4.0 10.0 0.00 0.02 0.00 26 1016.6
20260830213632 77 320 6.0 10.0 0.00 0.02 0.00 26 1016.6
20260830212621 77 24 3.0 12.0 0.00 0.02 0.00 26 1016.6
20260830211616 77 340 4.0 9.0 0.00 0.02 0.00 27 1016.7
20260830210625 77 295 4.0 9.0 0.00 0.02 0.00 28 1016.8
20260830205626 76 60 4.0 9.0 0.00 0.02 0.00 28 1016.8
20260830204617 76 344 3.0 10.0 0.00 0.02 0.00 28 1017.0
20260830203647 76 320 2.0 11.0 0.00 0.02 0.00 28 1017.0
20260830202619 76 306 3.0 7.0 0.00 0.02 0.00 28 1017.0
20260830201629 75 284 1.0 4.0 0.00 0.02 0.00 28 1017.1
20260830200621 75 355 2.0 6.0 0.00 0.02 0.00 29 1017.1
20260830195627 75 286 2.0 5.0 0.00 0.02 0.00 30 1017.2
20260830194616 74 346 2.0 9.0 0.00 0.02 0.00 29 1017.3
20260830193626 74 360 3.0 6.0 0.00 0.02 0.00 29 1017.3
20260830192616 73 355 5.0 9.0 0.00 0.02 0.00 30 1017.4
20260830191631 73 42 3.0 9.0 0.00 0.02 0.00 30 1017.4
20260830190622 73 298 2.0 10.0 0.00 0.02 0.00 29 1017.4
20260830185645 73 30 3.0 7.0 0.00 0.02 0.00 29 1017.5
20260830184615 72 18 3.0 8.0 0.00 0.02 0.00 29 1017.5
20260830183651 72 326 3.0 6.0 0.00 0.02 0.00 30 1017.6
20260830182620 71 5 6.0 11.0 0.00 0.02 0.00 30 1017.6
20260830181612 71 5 5.0 9.0 0.00 0.02 0.00 30 1017.7
20260830180629 70 23 5.0 11.0 0.00 0.02 0.00 30 1017.6
20260830175631 70 30 6.0 11.0 0.00 0.02 0.00 29 1017.6
20260830174627 70 346 6.0 12.0 0.00 0.02 0.00 31 1017.7
20260830173618 69 5 6.0 11.0 0.00 0.02 0.00 32 1017.7
20260830172629 69 16 4.0 11.0 0.00 0.02 0.00 33 1017.7
20260830171622 68 5 4.0 11.0 0.00 0.02 0.00 34 1017.8
20260830170612 67 5 4.0 13.0 0.00 0.02 0.00 34 1017.8
20260830165636 67 34 5.0 11.0 0.00 0.02 0.00 35 1017.8
20260830164625 66 329 5.0 11.0 0.00 0.02 0.00 35 1017.8
20260830163636 66 5 5.0 12.0 0.00 0.02 0.00 37 1017.7
20260830162649 66 22 7.0 14.0 0.00 0.02 0.00 37 1017.7
20260830161619 65 360 4.0 13.0 0.00 0.02 0.00 40 1017.6
20260830160651 64 36 7.0 12.0 0.00 0.02 0.00 41 1017.6
20260830155612 64 12 6.0 14.0 0.00 0.02 0.00 44 1017.6
20260830154626 63 12 5.0 15.0 0.00 0.02 0.00 46 1017.6
20260830153616 63 5 6.0 15.0 0.00 0.02 0.00 48 1017.6
20260830152626 62 9 8.0 16.0 0.00 0.02 0.00 52 1017.5
20260830151616 61 24 7.0 12.0 0.00 0.02 0.00 58 1017.4
20260830150612 60 5 4.0 10.0 0.00 0.02 0.00 65 1017.4
20260830145612 59 16 5.0 9.0 0.00 0.02 0.00 67 1017.4
20260830144642 58 16 4.0 9.0 0.00 0.02 0.00 70 1017.4
20260830143631 58 20 4.0 6.0 0.00 0.02 0.00 74 1017.3
20260830142624 58 24 3.0 8.0 0.00 0.02 0.00 77 1017.3
20260830141635 57 5 2.0 6.0 0.00 0.02 0.00 80 1017.1
20260830140624 57 9 4.0 6.0 0.00 0.02 0.00 83 1016.8
20260830135648 57 9 3.0 6.0 0.00 0.02 0.00 85 1016.7
20260830134621 57 341 4.0 8.0 0.00 0.02 0.00 86 1016.6
20260830133611 57 17 2.0 4.0 0.00 0.02 0.00 86 1016.6